Weather History for NW Arkansas Airport, AR

Change the Weather History Date:

Friday, January 18, 2013

  Actual Average Record
Temperature  
Mean Temperature 38 °F -  
Max Temperature 53 °F - - ()
Min Temperature 24 °F - - ()
Degree Days  
Heating Degree Days 26    
Moisture  
Dew Point 26 °F    
Average Humidity 65    
Maximum Humidity 96    
Minimum Humidity 37    
Precipitation  
Precipitation 0.00 in - - ()
Sea Level Pressure  
Sea Level Pressure 30.38 in    
Wind  
Wind Speed 6 mph (South)    
Max Wind Speed 20 mph    
Max Gust Speed 24 mph    
Visibility 10 miles    
Events      
T = Trace of Precipitation, MM = Missing Value Source: NWS Daily Summary

Daily Weather History Graph

Daily Weather History Graph

Search for Another Location

Airport:

Trip Planner

Search our weather history database for the weather conditions in past years. The results will help you decide how hot, cold, wet, or windy it might be!

Date:

Astronomy

Jan. 18, 2013 Rise Set
Actual Time 7:26 AM CST 5:29 PM CST
Civil Twilight 6:58 AM CST 5:57 PM CST
Nautical Twilight 6:27 AM CST 6:28 PM CST
Astronomical Twilight 5:56 AM CST 6:59 PM CST
Moon 11:20 AM CST (1/18) 12:06 AM CST (1/18)
Length of Visible Light 10h 58m
Length of Day
10h 02m
Waxing Crescent, 47% of the Moon is Illuminated
Jan 18
Waxing Crescent
Jan 18
First Quarter
Jan 26
Full
Feb 3
Last Quarter
Feb 10
New

Hourly Weather History & Observations

Time (CST) Temp. Windchill Dew Point Humidity Pressure Visibility Wind Dir Wind Speed Gust Speed Precip Events Conditions
12:53 AM 25.0 °F 20.7 °F 23.0 °F 92% 30.51 in 10.0 mi South 3.5 mph - N/A   Clear
1:53 AM 25.0 °F - 23.0 °F 92% 30.52 in 10.0 mi Calm Calm - N/A   Clear
2:53 AM 24.1 °F - 21.9 °F 91% 30.51 in 10.0 mi Calm Calm - N/A   Clear
3:53 AM 25.0 °F - 23.0 °F 92% 30.49 in 10.0 mi Calm Calm - N/A   Clear
4:53 AM 25.0 °F - 24.1 °F 96% 30.48 in 10.0 mi Calm Calm - N/A   Clear
5:53 AM 25.0 °F 20.7 °F 23.0 °F 92% 30.48 in 10.0 mi South 3.5 mph - N/A   Clear
6:53 AM 25.0 °F 20.7 °F 23.0 °F 92% 30.47 in 10.0 mi South 3.5 mph - N/A   Clear
7:53 AM 25.0 °F - 23.0 °F 92% 30.46 in 10.0 mi Calm Calm - N/A   Clear
8:53 AM 32.0 °F 25.6 °F 28.0 °F 85% 30.47 in 10.0 mi South 6.9 mph - N/A   Clear
9:53 AM 39.0 °F 31.4 °F 28.9 °F 67% 30.47 in 10.0 mi South 12.7 mph - N/A   Clear
10:53 AM 46.9 °F - 30.9 °F 54% 30.45 in 10.0 mi SSW 12.7 mph - N/A   Clear
11:53 AM 50.0 °F - 30.0 °F 46% 30.41 in 10.0 mi SSW 17.3 mph - N/A   Clear
12:53 PM 52.0 °F - 28.9 °F 41% 30.36 in 10.0 mi South 19.6 mph 24.2 mph N/A   Clear
1:53 PM 53.1 °F - 27.0 °F 37% 30.33 in 10.0 mi SSW 15.0 mph 21.9 mph N/A   Clear
2:53 PM 53.1 °F - 28.0 °F 38% 30.31 in 10.0 mi SSW 11.5 mph 21.9 mph N/A   Clear
3:53 PM 52.0 °F - 26.1 °F 37% 30.29 in 10.0 mi SSW 17.3 mph 24.2 mph N/A   Clear
4:53 PM 50.0 °F - 28.0 °F 43% 30.29 in 10.0 mi SSW 13.8 mph - N/A   Clear
5:53 PM 45.0 °F 39.7 °F 28.9 °F 53% 30.29 in 10.0 mi South 10.4 mph - N/A   Clear
6:53 PM 44.1 °F 38.6 °F 28.0 °F 53% 30.27 in 10.0 mi South 10.4 mph - N/A   Clear
7:53 PM 41.0 °F 35.8 °F 28.0 °F 60% 30.27 in 10.0 mi South 8.1 mph - N/A   Clear
8:53 PM 43.0 °F 36.4 °F 26.1 °F 51% 30.25 in 10.0 mi South 12.7 mph - N/A   Clear
9:53 PM 42.1 °F 36.1 °F 27.0 °F 55% 30.24 in 10.0 mi South 10.4 mph - N/A   Clear
10:53 PM 41.0 °F 34.3 °F 27.0 °F 57% 30.22 in 10.0 mi South 11.5 mph - N/A   Clear
11:53 PM 42.1 °F 36.6 °F 26.1 °F 53% 30.21 in 10.0 mi SSW 9.2 mph - N/A   Clear